Regional Weather Roundup
Issued by NWS

Home | Current Version | Previous Version | Text Only | Print | Product List | Glossary On
Versions: 1 2 3 4 5 6 7 8 9 10 11 12 13 14 15 16 17 18 19 20 21 22 23 24 25 26 27 28 29 30 31 32 33 34 35 36 37 38 39 40 41 42 43 44 45 46 47 48 49 50
000
ASUS43 KBIS 271410
RWRND

NORTH DAKOTA REGIONAL WEATHER ROUNDUP
NATIONAL WEATHER SERVICE BISMARCK ND
900 AM CDT THU APR 27 2017

NOTE: "FAIR" INDICATES FEW OR NO CLOUDS BELOW 12,000 FEET WITH NO
SIGNIFICANT WEATHER AND/OR OBSTRUCTIONS TO VISIBILITY.


NDZ001>003-009>011-017-271500-
NORTHWEST NORTH DAKOTA

CITY           SKY/WX    TMP DP  RH WIND       PRES   REMARKS
WILLISTON      FAIR      35  27  72 NE7       29.78R
MINOT          FAIR      33  24  69 N7        29.77S
MINOT AFB      SUNNY     32  23  70 NE9       29.77S
$$

NDZ018>021-031>035-040>046-271500-
SOUTHWEST NORTH DAKOTA

CITY           SKY/WX    TMP DP  RH WIND       PRES   REMARKS
BISMARCK       CLOUDY    34  24  67 N6        29.75F
DICKINSON      FAIR      30  26  85 SE6       29.70S
GARRISON         N/A     33  23  66 NE7       29.75F
HETTINGER ARPT CLOUDY    30  26  85 E5        29.71S
$$

NDZ004>008-012>016-024-026-027-054-271500-
NORTHEAST NORTH DAKOTA

CITY           SKY/WX    TMP DP  RH WIND       PRES   REMARKS
GRAND FORKS    PTSUNNY   27  23  85 N8        29.72F WCI  19
GRND FRKS AFB  SUNNY     29  21  72 N9        29.72F
DEVILS LAKE    FAIR      32  19  58 N13       29.74S
$$

NDZ022-023-025-028>030-036>039-047>053-271500-
SOUTHEAST NORTH DAKOTA

CITY           SKY/WX    TMP DP  RH WIND       PRES   REMARKS
FARGO          MIX PCPN  27  22  81 N13       29.70R WCI  16
JAMESTOWN      FAIR      32  23  69 N10       29.72S
$$




USA.gov is the U.S. government's official web portal to all federal, state and local government web resources and services.